FLOCK 3P-50 (42029 NORAD) Tracking and Keplerian Element Data

This shows tracking and keplerian element data for the satellite.

Feedback or suggestion? Click here.




ElementValue
Catalog42029
NameFLOCK 3P-50
Epoch Orbit32569
Epoch Day359.18796561
Epoch Year2022
RAAN65.8885
Inclination97.2469
Eccentricity0.0005604
Argument of Perigee290.1002
Mean Anonmoly69.9658
Mean Motion15.70144924
Decay Rate0.00338612
L11 42029U 17008CK 22359.18796561 .00338612 00000+0 26983-2 0 9999
L22 42029 97.2469 65.8885 0005604 290.1002 69.9658 15.70144924325690



Live tracking and technical data element details for FLOCK 3P-50 (NORAD 42029). FLOCK 3P-50 can be tracked NOW for your location showing map with azimuth and elevation plus other details from your city location.







IsCatalogInMostPopularTable: catalog: 42029, numindb: 583
Update: records affected: 1



GetName: 42029 FLOCK 3P-50

Hit Count: updated at: Thu, 15 May 2025 19:42:10 GMT